[[{"header":{"parameterUnit":"m.s-1","parameterCategory":1,"la1":30.2991,"la2":30.254,"lo1":-89.0895,"lo2":-89.0444,"dy":0.0017,"dx":0.0017,"nx":28,"ny":28,"refTime":"2023-10-22T03:00:00:Z","depth":0,"parameterNumber":2,"parameterNumberName":"U-component_of_WINDS"},"data":[0,0,0,0,0,0,0,0,0,0,0,0,0,0,0,0,0,0,0,0,0,0,0,0,0,0,0,0,0,0,0,0,0,0,0,0,0,0,0,0,0,0,0,0,0,0,0,0,0,0,0,0,0,0,0,0,0,0,-1.879,-1.8791,0,-1.8839,-1.8839,-1.884,-1.8866,-1.8866,-1.8866,-1.8866,-1.8914,-1.8915,-1.8916,0,0,0,0,0,0,0,0,0,0,0,0,0,-1.8719,-1.872,-1.879,-1.8791,-1.8791,-1.8839,-1.8839,-1.884,-1.8866,-1.8866,-1.8866,-1.8866,-1.8914,-1.8915,-1.8917,0,0,0,0,0,0,0,0,0,0,0,0,0,-1.8757,-1.872,-1.879,-1.881,-1.8812,-1.8839,-1.8839,-1.884,-1.8866,-1.8866,-1.8866,-1.8866,-1.8913,-1.8915,-1.8917,-1.8926,0,0,-1.8922,-1.8923,0,0,0,0,0,0,0,0,-1.8755,-1.8759,-1.8807,-1.8809,-1.8811,-1.8847,-1.8832,-1.8869,-1.8866,-1.8846,-1.8866,-1.8866,-1.8891,-1.8895,-1.8904,-1.8928,-1.893,-1.8922,-1.8924,-1.8924,-1.8925,0,0,0,0,0,0,0,-1.8752,-1.8757,-1.8809,-1.8807,-1.881,-1.8816,-1.8822,-1.8839,-1.8867,-1.8847,-1.8849,-1.8855,-1.8893,-1.8902,-1.8905,-1.8931,-1.8922,-1.8924,-1.8925,-1.8926,-1.8967,-1.8967,0,0,0,0,0,0,-1.8746,-1.8755,-1.8808,-1.8811,-1.8783,-1.8818,-1.8824,-1.8835,-1.8867,-1.8872,-1.8855,-1.8856,-1.8899,-1.8903,-1.8907,-1.8921,-1.8924,-1.8926,-1.8927,-1.8967,-1.8967,-1.8967,0,0,0,0,0,0,-1.8745,-1.8751,-1.8806,-1.8784,-1.8791,-1.8819,-1.8831,-1.8836,-1.8845,-1.8873,-1.8878,-1.8859,-1.8899,-1.8904,-1.8922,-1.8923,-1.8927,-1.8929,-1.8967,-1.8967,-1.8967,-1.8949,0,0,0,0,0,0,-1.8742,-1.875,-1.8754,-1.8783,-1.8792,-1.882,-1.8831,-1.8837,-1.8849,-1.8851,-1.8878,-1.8883,-1.89,-1.8919,-1.8923,-1.8926,-1.893,-1.8967,-1.8967,-1.8967,-1.895,-1.8949,-1.8947,0,0,0,0,0,-1.874,-1.8746,-1.8754,-1.876,-1.8798,-1.882,-1.8825,-1.8845,-1.8849,-1.8853,-1.8871,-1.8882,-1.8922,-1.892,-1.8926,-1.8929,-1.8967,-1.8967,-1.8967,-1.895,-1.8949,-1.8948,0,0,0,0,0,0,-1.8715,-1.875,-1.8759,-1.8776,-1.8795,-1.8824,-1.883,-1.8842,-1.886,-1.8861,-1.8884,-1.889,-1.8905,-1.8919,-1.8916,-1.894,-1.8946,-1.8947,-1.8931,-1.893,-1.8929,-1.8925,-1.8931,0,0,0,0,0,-1.8712,-1.8727,-1.8757,-1.8768,-1.8778,-1.8802,-1.8813,-1.8826,-1.8847,-1.8855,-1.8874,-1.8893,-1.891,-1.892,-1.8938,-1.8952,-1.8959,-1.8956,-1.8955,-1.8954,-1.8955,-1.8965,-1.8965,-1.8967,-1.8967,-1.8967,0,0,-1.8704,-1.8726,-1.8734,-1.8764,-1.878,-1.8796,-1.8809,-1.8824,-1.8836,-1.8857,-1.8875,-1.889,-1.8912,-1.8928,-1.8936,-1.894,-1.8956,-1.8954,-1.8953,-1.8955,-1.8965,-1.8964,-1.8964,-1.8968,-1.8968,-1.8968,0,0,-1.8699,-1.8717,-1.8729,-1.8745,-1.8771,-1.8787,-1.879,-1.8818,-1.8829,-1.8848,-1.8864,-1.8878,-1.8907,-1.8923,-1.8935,-1.8937,-1.8949,-1.8942,-1.8936,-1.8945,-1.8945,-1.8945,-1.8947,-1.8947,-1.8943,-1.8943,-1.8943,0,-1.8687,-1.8712,-1.8733,-1.8749,-1.8762,-1.8782,-1.8795,-1.8809,-1.8838,-1.8847,-1.8851,-1.8888,-1.8905,-1.8926,-1.8926,-1.8935,-1.8939,-1.8939,-1.8944,-1.8944,-1.8944,-1.8946,-1.8946,-1.8942,-1.8942,-1.8942,-1.8942,0,-1.8696,-1.8713,-1.8719,-1.8748,-1.8762,-1.8776,-1.8799,-1.8811,-1.8823,-1.8839,-1.8858,-1.8879,-1.8902,-1.8908,-1.8919,-1.893,-1.8932,-1.8939,-1.8946,-1.8942,-1.8945,-1.8946,-1.894,-1.8941,-1.8941,-1.8941,0,0,-1.8676,-1.8718,-1.872,-1.8734,-1.8764,-1.8777,-1.8792,-1.8815,-1.8825,-1.8844,-1.8857,-1.8882,-1.8889,-1.8903,-1.8917,-1.8924,-1.8927,-1.8931,-1.8932,-1.893,-1.8941,-1.8936,-1.8936,-1.8934,-1.8934,-1.8934,-1.8939,0,-1.8677,-1.8705,-1.8725,-1.8746,-1.8762,-1.8782,-1.8795,-1.8815,-1.8831,-1.8846,-1.8863,-1.8881,-1.8889,-1.8897,-1.8906,-1.8924,-1.8929,-1.8924,-1.8947,-1.8948,-1.8941,-1.8937,-1.8932,-1.8935,-1.894,-1.8941,-1.8941,0,-1.868,-1.8701,-1.8723,-1.8752,-1.876,-1.8771,-1.8795,-1.8809,-1.8832,-1.8843,-1.8859,-1.8873,-1.889,-1.8895,-1.8918,-1.8915,-1.8925,-1.8936,-1.8936,-1.8939,-1.8944,-1.8941,-1.8937,-1.8938,-1.8942,-1.8942,-1.8942,0,-1.8665,-1.8698,-1.8716,-1.8727,-1.8761,-1.8769,-1.8784,-1.8807,-1.882,-1.8839,-1.8848,-1.8869,-1.8881,-1.8897,-1.8917,-1.8919,-1.8939,-1.8945,-1.8949,-1.8949,-1.8953,-1.8952,-1.8951,-1.8958,-1.8958,-1.8958,-1.8958,0,-1.8664,-1.8677,-1.871,-1.8721,-1.8737,-1.876,-1.8774,-1.879,-1.8811,-1.8826,-1.8844,-1.8857,-1.8882,-1.8899,-1.8914,-1.8932,-1.8937,-1.8946,-1.8951,-1.8945,-1.8944,-1.8953,-1.8953,-1.8958,-1.8958,-1.8958,-1.8958,0,-1.8649,-1.8672,-1.8693,-1.8725,-1.8733,-1.8743,-1.877,-1.8781,-1.8798,-1.8816,-1.8822,-1.8848,-1.8869,-1.8891,-1.8918,-1.8928,-1.8946,-1.8951,-1.8938,-1.8941,-1.8944,-1.8943,-1.8948,-1.895,-1.8955,-1.8955,-1.8955,0,-1.8647,-1.8658,-1.8691,-1.8703,-1.8717,-1.8735,-1.8749,-1.8772,-1.8785,-1.8813,-1.8821,-1.8843,-1.8862,-1.8893,-1.8915,-1.8936,-1.8943,-1.8943,-1.8946,-1.8941,-1.8944,-1.8943,-1.8945,-1.8942,-1.8942,-1.8941,-1.8941,0,-1.8642,-1.8653,-1.8672,-1.8695,-1.8711,-1.873,-1.875,-1.8759,-1.8786,-1.88,-1.8821,-1.8836,-1.8865,-1.8886,-1.891,-1.8925,-1.8938,-1.894,-1.8943,-1.8937,-1.893,-1.8935,-1.8936,-1.894,-1.894,-1.894,-1.894,-1.894,-1.8634,-1.8645,-1.8671,-1.8692,-1.8709,-1.8728,-1.8741,-1.876,-1.8778,-1.8804,-1.8816,-1.8838,-1.8861,-1.8895,-1.891,-1.8927,-1.8931,-1.8934,-1.8934,-1.8935,-1.8934,-1.8927,-1.8931,-1.8931,-1.8931,-1.8931,-1.8932,0,-1.863,-1.8648,-1.8667,-1.8695,-1.8712,-1.8723,-1.8746,-1.8759,-1.8778,-1.8799,-1.8818,-1.8843,-1.8864,-1.8888,-1.891,-1.892,-1.8926,-1.8925,-1.8925,-1.8928,-1.8929,-1.8925,-1.8919,-1.8919,-1.8919,-1.8919,-1.8919,-1.8919,-1.863,-1.865,-1.8664,-1.8693,-1.871,-1.8732,-1.8744,-1.8762,-1.8779,-1.8806,-1.8825,-1.884,-1.8862,-1.8887,-1.8907,-1.8914,-1.8921,-1.8919,-1.8927,-1.8927,-1.8928,-1.8929,-1.8926,-1.892,-1.892,-1.8925,-1.8925,-1.8925]},{"header":{"parameterUnit":"m.s-1","parameterCategory":1,"la1":30.2991,"la2":30.254,"lo1":-89.0895,"lo2":-89.0444,"dy":0.0017,"dx":0.0017,"nx":28,"ny":28,"refTime":"2023-10-22T03:00:00:Z","depth":0,"parameterNumber":3,"parameterNumberName":"V-component_of_WINDS"},"data":[0,0,0,0,0,0,0,0,0,0,0,0,0,0,0,0,0,0,0,0,0,0,0,0,0,0,0,0,0,0,0,0,0,0,0,0,0,0,0,0,0,0,0,0,0,0,0,0,0,0,0,0,0,0,0,0,0,0,0.9515,0.9515,0,0.9504,0.9504,0.9504,0.9561,0.9562,0.9564,0.9566,0.9548,0.9546,0.9544,0,0,0,0,0,0,0,0,0,0,0,0,0,0.9582,0.958,0.9515,0.9515,0.9515,0.9504,0.9504,0.9504,0.956,0.9562,0.9564,0.9566,0.9548,0.9546,0.9544,0,0,0,0,0,0,0,0,0,0,0,0,0,0.956,0.958,0.9515,0.9542,0.9545,0.9504,0.9504,0.9504,0.956,0.9562,0.9565,0.9567,0.9549,0.9546,0.9543,0.9475,0,0,0.9534,0.9533,0,0,0,0,0,0,0,0,0.9561,0.9557,0.9538,0.954,0.9543,0.9536,0.9521,0.9494,0.9559,0.9554,0.9566,0.9568,0.9542,0.9539,0.9532,0.9474,0.9473,0.9534,0.9532,0.9531,0.953,0,0,0,0,0,0,0,0.9562,0.9558,0.9511,0.9538,0.9541,0.9553,0.9553,0.9516,0.9534,0.9555,0.9559,0.9557,0.9543,0.9534,0.9532,0.9473,0.9534,0.9531,0.9529,0.9528,0.9358,0.9356,0,0,0,0,0,0,0.9561,0.9559,0.9511,0.951,0.9558,0.955,0.955,0.9536,0.9534,0.9537,0.9555,0.956,0.9538,0.9535,0.9531,0.945,0.9531,0.9528,0.9526,0.9361,0.9358,0.9355,0,0,0,0,0,0,0.9562,0.9556,0.9512,0.9536,0.9531,0.9546,0.953,0.9534,0.9526,0.9535,0.9537,0.9543,0.954,0.9535,0.9489,0.9451,0.9526,0.9524,0.9364,0.936,0.9356,0.9288,0,0,0,0,0,0,0.9564,0.9556,0.9531,0.9535,0.953,0.947,0.9528,0.9532,0.9521,0.9527,0.9524,0.9526,0.9542,0.9493,0.9486,0.9448,0.9521,0.9367,0.9362,0.9357,0.9294,0.9282,0.9273,0,0,0,0,0,0.9566,0.9511,0.953,0.9524,0.9499,0.9468,0.9465,0.9486,0.9518,0.9492,0.9498,0.9526,0.9456,0.9488,0.948,0.9441,0.937,0.9364,0.9358,0.9299,0.9285,0.9273,0,0,0,0,0,0,0.95,0.9512,0.9533,0.9478,0.9472,0.9478,0.9446,0.9471,0.9454,0.946,0.9485,0.9484,0.9433,0.9432,0.9467,0.9374,0.9418,0.941,0.9376,0.9363,0.9352,0.9353,0.9519,0,0,0,0,0,0.948,0.9456,0.9467,0.9417,0.9414,0.943,0.9418,0.9435,0.9429,0.9426,0.9428,0.942,0.9396,0.938,0.9358,0.9295,0.9294,0.9264,0.9253,0.9245,0.9237,0.9203,0.9189,0.9335,0.9335,0.9335,0,0,0.9437,0.944,0.9423,0.9404,0.9402,0.9374,0.9428,0.9396,0.9376,0.942,0.9377,0.9378,0.9371,0.9315,0.9291,0.9313,0.9197,0.9237,0.923,0.9227,0.9195,0.9181,0.9169,0.9331,0.9331,0.9332,0,0,0.9344,0.9345,0.9304,0.9301,0.9297,0.9309,0.9299,0.9301,0.9305,0.9262,0.9295,0.927,0.9229,0.9222,0.9213,0.9119,0.9144,0.9112,0.9055,0.9021,0.901,0.9,0.8965,0.8953,0.9104,0.9104,0.9104,0,0.929,0.9252,0.9279,0.9246,0.9236,0.9278,0.9236,0.9231,0.9219,0.9211,0.9237,0.9187,0.9184,0.9128,0.9105,0.9097,0.9085,0.9111,0.901,0.9,0.8991,0.8958,0.8945,0.91,0.9101,0.9101,0.9101,0,0.9185,0.9158,0.9126,0.9116,0.9103,0.9065,0.9085,0.9068,0.9087,0.9095,0.9051,0.905,0.9029,0.9018,0.9034,0.8963,0.8977,0.9006,0.9051,0.8973,0.8942,0.893,0.9094,0.9096,0.9097,0.9098,0,0,0.9049,0.9056,0.9043,0.904,0.9039,0.9018,0.8982,0.8964,0.8949,0.894,0.8909,0.8874,0.8902,0.8891,0.8908,0.8879,0.8804,0.8911,0.8912,0.889,0.8724,0.8701,0.8687,0.8821,0.8819,0.8817,0.8724,0,0.8957,0.8898,0.8922,0.886,0.8835,0.8875,0.8844,0.8839,0.8846,0.8825,0.8833,0.8807,0.8846,0.884,0.8813,0.8819,0.877,0.8826,0.8791,0.8789,0.879,0.8671,0.8647,0.8559,0.8713,0.8711,0.8709,0,0.8842,0.8831,0.8767,0.8772,0.8762,0.8734,0.8719,0.8699,0.8694,0.8702,0.8691,0.8715,0.8678,0.8725,0.8674,0.8711,0.8699,0.8699,0.8697,0.8693,0.8744,0.8663,0.8532,0.8518,0.8691,0.8693,0.8694,0,0.8748,0.8716,0.8674,0.867,0.8675,0.8654,0.8654,0.8653,0.864,0.8627,0.8619,0.8601,0.8591,0.8576,0.8594,0.8626,0.854,0.8588,0.8544,0.8543,0.8522,0.8523,0.8386,0.8516,0.8516,0.8517,0.8517,0,0.8642,0.8601,0.8632,0.8606,0.8561,0.8589,0.8543,0.8548,0.8546,0.852,0.8554,0.8528,0.8554,0.853,0.8544,0.8499,0.8495,0.8498,0.8502,0.8495,0.8494,0.8485,0.8491,0.8513,0.8514,0.8515,0.8515,0,0.8528,0.8548,0.8504,0.8513,0.8515,0.8481,0.8488,0.8463,0.8474,0.8441,0.8435,0.845,0.8425,0.8442,0.8415,0.8424,0.8366,0.8379,0.8368,0.8371,0.8325,0.8329,0.8177,0.8158,0.8301,0.83,0.8299,0,0.8459,0.8429,0.8435,0.8422,0.8421,0.8398,0.8387,0.8413,0.8399,0.8392,0.8368,0.8346,0.8329,0.8286,0.8294,0.8274,0.8286,0.8234,0.8283,0.8276,0.8284,0.8285,0.8282,0.8224,0.8222,0.8221,0.822,0,0.8334,0.8345,0.8329,0.8315,0.8301,0.8291,0.8283,0.827,0.8296,0.8279,0.8254,0.8242,0.8216,0.8193,0.8177,0.8176,0.8201,0.8205,0.8193,0.8184,0.8179,0.818,0.834,0.8207,0.8209,0.821,0.821,0.8211,0.8239,0.8215,0.8216,0.8196,0.8193,0.8186,0.8164,0.8172,0.8153,0.8136,0.8152,0.8122,0.8118,0.8099,0.8095,0.8071,0.8092,0.8076,0.8071,0.8066,0.806,0.8184,0.8068,0.8069,0.8069,0.8069,0.807,0,0.8115,0.8118,0.81,0.809,0.8074,0.8102,0.8096,0.808,0.8054,0.805,0.8034,0.8005,0.7983,0.799,0.7971,0.795,0.7961,0.7944,0.7945,0.7944,0.8043,0.8054,0.7935,0.7935,0.7935,0.7935,0.7935,0.7935,0.8048,0.8008,0.8019,0.7978,0.7981,0.7954,0.7948,0.794,0.7937,0.7905,0.7888,0.7894,0.7893,0.7874,0.7855,0.7858,0.7848,0.7826,0.7832,0.7924,0.7937,0.795,0.7961,0.7824,0.7824,0.7736,0.7735,0.7734]}]]